Flag for India Weather past 2 weeks in Kolkata, West Bengal, India

Now
59 °F

Fog.


Feels Like: 59 °F
Forecast: 58 / 77 °F
Wind: 5 mph from North

Location: Calcutta / Dum Dum

Current Time: Dec 22, 2014 at 1:08:38 AM

Latest Report: Dec 22, 2014 at 12:50 AM


Visibility: 1 mi

Pressure: 29.95 "Hg

Humidity: 77%

Dew point: 52 °F

Location of KolkataLocation

Historic Weather in Kolkata — Graph

°F

Kolkata temperature yesterday

Maximum temperature yesterday: 77 °F (at 12:50 PM)
Minimum temperature yesterday: 57 °F (at 2:20 AM)
Average temperature yesterday: 65 °F

Past Weeks' High & Low Weather Summary

 TemperatureHumidityPressure
High82 °F (Dec 9, 2:20 PM)100% (Dec 7, 6:20 AM)30.15 "Hg (Dec 7, 6:20 AM)
Low54 °F (Dec 8, 6:20 AM)28% (Dec 10, 12:20 PM)29.86 "Hg (Dec 7, 2:20 PM)
Average67 °F75%29.98 "Hg
* Reported Dec 6 11:50 PM — Dec 21 11:50 PM, Kolkata, Weather by CustomWeather, © 2014

Note: Actual official high and low records may vary slightly from our data, if they occured in-between our weather recording intervals... More about our weather records

Advertising

Kolkata weather history for previous 24 hours

 ConditionsComfort  
Time TempWeatherWind HumidityBarometerVisibility
11:50 PM
Dec 21
61 °FPassing clouds.3 mph72%29.98 "Hg1 mi
11:20 PM61 °FPassing clouds.3 mph72%29.98 "Hg1 mi
10:50 PM64 °FPassing clouds.3 mph64%29.98 "Hg1 mi
10:20 PM64 °FPassing clouds.3 mph64%29.98 "Hg1 mi
9:50 PM64 °FPassing clouds.3 mph64%29.98 "Hg1 mi
9:20 PM66 °FPassing clouds.3 mph60%29.98 "Hg1 mi
8:50 PM66 °FPassing clouds.3 mph60%29.98 "Hg1 mi
8:20 PM66 °FPassing clouds.5 mph60%29.98 "Hg1 mi
7:50 PM66 °FPassing clouds.5 mph60%29.95 "Hg1 mi
7:20 PM68 °FPassing clouds.5 mph56%29.95 "Hg1 mi
6:50 PM68 °FPassing clouds.5 mph53%29.92 "Hg1 mi
6:20 PM68 °FPassing clouds.3 mph53%29.92 "Hg1 mi
5:50 PM70 °FPassing clouds.3 mph50%29.89 "Hg1 mi
5:20 PM70 °FScattered clouds.3 mph57%29.89 "Hg1 mi
4:50 PM72 °FScattered clouds.5 mph53%29.89 "Hg1 mi
4:20 PM73 °FScattered clouds.6 mph50%29.89 "Hg1 mi
3:50 PM75 °FScattered clouds.6 mph41%29.89 "Hg1 mi
3:20 PM75 °FScattered clouds.8 mph41%29.89 "Hg1 mi
2:50 PM77 °FScattered clouds.8 mph39%29.89 "Hg1 mi
2:20 PM77 °FScattered clouds.9 mph39%29.89 "Hg1 mi
1:20 PM77 °FHaze.7 mph42%29.92 "Hg2 mi
12:50 PM77 °FHaze.7 mph42%29.92 "Hg2 mi
12:20 PM75 °FHaze.7 mph44%29.95 "Hg2 mi
11:50 AM73 °FHaze.6 mph50%29.95 "Hg2 mi
11:20 AM72 °FHaze.7 mph53%29.98 "Hg1 mi
10:50 AM70 °FHaze.7 mph60%29.98 "Hg1 mi
10:20 AM68 °FHaze.6 mph64%30.01 "Hg1 mi
9:50 AM66 °FClear.7 mph68%30.01 "Hg1 mi
9:20 AM64 °FClear.8 mph73%30.04 "Hg1 mi
8:50 AM63 °FFog.7 mph77%30.04 "Hg1 mi
8:20 AM61 °FFog.7 mph83%30.01 "Hg1 mi
7:50 AM61 °FFog.7 mph83%30.01 "Hg1 mi
7:20 AM59 °FFog.6 mph88%29.98 "Hg1 mi
6:50 AM57 °FFog.6 mph88%29.98 "Hg1 mi
5:50 AM57 °FFog.5 mph88%29.95 "Hg1 mi
5:20 AM57 °FFog.5 mph88%29.95 "Hg1 mi
4:50 AM57 °FFog.3 mph88%29.95 "Hg1 mi
4:20 AM57 °FFog.5 mph88%29.95 "Hg1 mi
3:50 AM57 °FFog.3 mph88%29.95 "Hg1 mi
3:20 AM57 °FFog.6 mph88%29.95 "Hg1 mi
2:50 AM57 °FFog.6 mph88%29.95 "Hg1 mi
2:20 AM57 °FFog.6 mph88%29.95 "Hg1 mi
1:50 AM59 °FFog.5 mph88%29.95 "Hg1 mi
1:20 AM59 °FFog.No wind88%29.95 "Hg1 mi
Weather by CustomWeather, © 2014

See weather overviewHow to use our weather pages